CW1459 Weather Reports


time (UTC)temp
F
wind
direction
speed
knots
gust
knots
rain 1hr
in
rain 24hr
in
rain mn
in
humidity
%
barometer
mb
20260904093312 69 181 0.0 0.9 0.00 0.38 0.01 96 1013.1
20260904092356 69 181 0.0 1.7 0.00 0.38 0.01 96 1013.1
20260904091316 69 181 0.9 1.7 0.00 0.38 0.01 96 1013.0
20260904090337 69 173 1.7 2.6 0.00 0.38 0.01 96 1012.9
20260904085339 69 132 0.0 2.6 0.00 0.38 0.01 96 1013.1
20260904084332 69 124 0.0 3.5 0.00 0.38 0.01 96 1013.0
20260904083340 69 30 2.6 5.2 0.00 0.38 0.01 96 1013.3
20260904082319 69 198 0.0 0.9 0.00 0.38 0.01 96 1012.5
20260904081320 69 198 0.0 0.9 0.00 0.38 0.01 95 1012.3
20260904080317 69 198 0.0 1.7 0.00 0.38 0.01 95 1012.3
20260904075339 69 198 0.0 0.9 0.01 0.38 0.01 95 1012.4
20260904074339 69 198 0.0 1.7 0.01 0.38 0.01 95 1012.4
20260904073340 69 161 2.6 4.3 0.01 0.38 0.01 95 1012.3
20260904072342 69 159 1.7 3.5 0.01 0.38 0.01 95 1012.4
20260904071317 69 206 0.9 5.2 0.01 0.38 0.01 95 1012.5
20260904070321 69 158 2.6 6.1 0.01 0.38 0.01 95 1012.6
20260904065322 69 149 2.6 3.5 0.00 0.37 0.00 95 1012.6
20260904064321 69 120 2.6 4.3 0.00 0.37 0.00 95 1012.3
20260904063333 69 174 3.5 5.2 0.00 0.37 0.00 95 1012.2
20260904062400 69 148 1.7 4.3 0.00 0.37 0.00 95 1012.1
20260904061400 69 157 1.7 4.3 0.00 0.37 0.00 95 1012.1
20260904060321 69 165 2.6 4.3 0.00 0.37 0.00 95 1012.1
20260904055359 69 190 2.6 5.2 0.00 0.37 0.00 94 1012.1
20260904054319 69 165 1.7 4.3 0.00 0.37 0.00 94 1012.2
20260904053326 69 170 0.9 3.5 0.00 0.37 0.00 94 1012.5
20260904052315 69 181 1.7 3.5 0.00 0.37 0.00 94 1012.9
20260904051358 70 169 1.7 6.1 0.00 0.37 0.00 94 1013.3
20260904050322 70 244 3.5 8.7 0.00 0.37 0.00 94 1013.6
20260904045330 70 149 3.5 7.0 0.00 0.37 0.00 94 1014.1
20260904044340 70 202 2.6 4.3 0.02 0.37 0.00 94 1014.2
20260904043315 70 202 1.7 3.5 0.04 0.37 0.00 93 1013.9
20260904042318 71 218 1.7 4.3 0.06 0.37 0.00 93 1013.3
20260904041344 71 248 1.7 3.5 0.09 0.37 0.00 93 1013.5
20260904040344 71 311 2.6 3.5 0.10 0.37 0.00 93 1013.0
20260904035400 71 214 2.6 7.0 0.11 0.37 0.37 92 1012.8
20260904034339 71 145 4.3 7.0 0.10 0.35 0.35 93 1013.6
20260904033340 72 167 3.5 6.1 0.08 0.33 0.33 92 1015.3
20260904032402 72 168 3.5 4.3 0.06 0.31 0.31 92 1015.9
20260904031322 72 192 0.9 1.7 0.03 0.28 0.28 91 1015.8
20260904030345 72 343 1.7 4.3 0.02 0.27 0.27 91 1015.8
20260904025331 72 9 1.7 4.3 0.01 0.26 0.26 91 1015.2
20260904024336 72 322 0.9 3.5 0.04 0.25 0.25 90 1015.0
20260904023317 72 101 0.0 4.3 0.05 0.25 0.25 89 1014.3
20260904022317 73 90 3.5 7.0 0.05 0.25 0.25 88 1014.3
20260904021323 73 116 2.6 6.1 0.05 0.25 0.25 86 1014.6
20260904020314 75 78 2.6 7.0 0.05 0.25 0.25 84 1014.7
20260904015320 76 46 3.5 10.4 0.04 0.24 0.24 81 1014.6
20260904014331 77 309 6.1 17.4 0.00 0.20 0.20 81 1014.4
20260904013356 79 360 10.4 13.9 0.00 0.20 0.20 89 1013.5
20260904012401 79 155 0.0 0.9 0.00 0.20 0.20 88 1012.4
20260904011331 79 155 0.0 1.7 0.00 0.20 0.20 88 1012.6
20260904010336 79 155 0.0 0.9 0.00 0.20 0.20 88 1012.4
20260904005318 79 155 0.9 1.7 0.00 0.20 0.20 88 1012.2
20260904004333 79 155 0.0 0.9 0.00 0.20 0.20 87 1012.5
20260904003340 79 155 0.0 0.0 0.00 0.20 0.20 86 1012.3
20260904002315 79 155 0.0 0.9 0.00 0.20 0.20 86 1012.4
20260904001339 80 155 0.0 1.7 0.00 0.20 0.20 85 1012.6
20260904000341 80 155 0.0 2.6 0.00 0.20 0.20 84 1012.9
20260903235315 81 153 0.0 0.9 0.00 0.20 0.20 82 1013.1
20260903234318 81 153 0.0 1.7 0.00 0.20 0.20 81 1013.0
20260903233348 82 151 0.9 4.3 0.00 0.20 0.20 80 1012.9
20260903232344 82 181 2.6 4.3 0.00 0.20 0.20 79 1012.7
20260903231316 83 152 1.7 4.3 0.00 0.20 0.20 78 1012.2
20260903230316 83 153 1.7 4.3 0.00 0.20 0.20 76 1012.2
20260903225334 84 165 1.7 3.5 0.00 0.20 0.20 76 1012.2
20260903224351 85 161 2.6 4.3 0.00 0.20 0.20 76 1012.2
20260903223327 86 143 0.9 2.6 0.00 0.20 0.20 74 1012.2
20260903222359 88 163 1.7 2.6 0.00 0.20 0.20 71 1012.2
20260903221340 89 155 1.7 2.6 0.00 0.20 0.20 70 1012.0
20260903220340 90 166 2.6 4.3 0.00 0.20 0.20 64 1011.9
20260903215346 90 175 3.5 6.1 0.00 0.20 0.20 64 1011.9
20260903214326 89 243 1.7 5.2 0.00 0.20 0.20 65 1012.0
20260903213320 89 192 2.6 7.0 0.00 0.20 0.20 65 1012.0
20260903212339 89 211 1.7 4.3 0.00 0.20 0.20 66 1012.1
20260903211341 89 209 3.5 6.1 0.00 0.20 0.20 65 1012.0
20260903210322 89 248 2.6 4.3 0.00 0.20 0.20 66 1012.0
20260903205339 88 259 2.6 6.1 0.00 0.20 0.20 66 1012.2
20260903204340 88 242 3.5 7.0 0.00 0.20 0.20 67 1012.3
20260903203336 88 261 3.5 8.7 0.00 0.20 0.20 68 1012.3
20260903202336 89 216 3.5 6.1 0.00 0.20 0.20 68 1012.6
20260903201317 88 215 4.3 7.0 0.00 0.20 0.20 69 1012.7
20260903200316 88 235 3.5 7.0 0.00 0.20 0.20 69 1012.8
20260903195317 87 223 3.5 7.0 0.00 0.20 0.20 69 1013.0
20260903194332 87 177 1.7 6.1 0.00 0.20 0.20 70 1013.1
20260903193336 87 234 2.6 7.8 0.00 0.20 0.20 70 1013.4
20260903192317 86 206 2.6 7.8 0.00 0.20 0.20 72 1013.6
20260903191316 85 216 1.7 6.1 0.00 0.20 0.20 73 1013.7
20260903190338 85 202 4.3 8.7 0.00 0.20 0.20 72 1014.0
20260903185318 84 229 4.3 7.0 0.00 0.20 0.20 77 1014.2
20260903184355 83 292 2.6 8.7 0.00 0.20 0.20 74 1014.3
20260903183353 83 213 0.9 7.8 0.00 0.20 0.20 78 1014.4
20260903182336 81 166 3.5 5.2 0.00 0.20 0.20 81 1014.3
20260903181314 80 219 1.7 4.3 0.00 0.20 0.20 84 1014.7
20260903180337 78 223 1.7 4.3 0.00 0.20 0.20 85 1014.9
20260903175351 78 222 2.6 4.3 0.00 0.20 0.20 85 1015.0
20260903174332 78 227 1.7 5.2 0.00 0.20 0.20 84 1015.0
20260903173339 78 194 4.3 7.0 0.00 0.20 0.20 85 1015.1
20260903172326 78 260 4.3 7.8 0.00 0.20 0.20 86 1015.2
20260903171317 77 170 2.6 6.1 0.00 0.20 0.20 89 1015.4
20260903170350 75 196 2.6 5.2 0.00 0.20 0.20 91 1015.4
20260903165327 74 169 1.7 3.5 0.00 0.29 0.20 90 1015.4
20260903164333 74 227 2.6 4.3 0.00 0.29 0.20 90 1015.8
20260903163334 74 202 0.9 3.5 0.00 0.29 0.20 91 1016.1
20260903162334 73 221 1.7 3.5 0.00 0.29 0.20 90 1016.3
20260903161336 74 248 1.7 3.5 0.00 0.29 0.20 91 1016.5
20260903160322 73 313 2.6 3.5 0.00 0.29 0.20 92 1016.7
20260903155330 72 329 0.9 1.7 0.00 0.29 0.20 94 1016.4
20260903154334 72 134 0.9 2.6 0.10 0.29 0.20 94 1016.7
20260903153314 71 134 0.0 1.7 0.18 0.29 0.20 94 1016.7
20260903152328 71 134 0.9 1.7 0.18 0.29 0.20 93 1016.9
20260903151315 70 140 2.6 3.5 0.18 0.29 0.20 93 1016.8
20260903150332 70 95 0.9 1.7 0.18 0.29 0.20 92 1017.4
20260903145315 71 78 2.6 6.1 0.17 0.28 0.19 91 1017.5
20260903144329 72 44 3.5 15.6 0.08 0.19 0.10 92 1018.2
20260903143326 73 340 7.8 15.6 0.00 0.11 0.02 93 1018.6
20260903142334 73 123 0.9 5.2 0.00 0.11 0.02 93 1016.5
20260903141337 73 124 3.5 9.6 0.00 0.11 0.02 93 1016.6
20260903140333 73 247 4.3 10.4 0.00 0.11 0.02 93 1017.4
20260903135334 74 249 2.6 5.2 0.00 0.11 0.02 93 1016.6
20260903134336 74 141 2.6 4.3 0.00 0.11 0.02 93 1015.6
20260903133332 73 161 2.6 7.8 0.00 0.11 0.02 93 1015.8
20260903132335 73 236 3.5 8.7 0.00 0.11 0.02 94 1016.5
20260903131316 73 166 1.7 7.8 0.02 0.11 0.02 94 1016.3
20260903130317 73 202 2.6 4.3 0.02 0.11 0.02 93 1016.1
20260903125318 73 199 2.6 5.2 0.02 0.11 0.02 93 1016.5
20260903124325 73 219 1.7 3.5 0.02 0.11 0.02 92 1016.7
20260903123333 73 46 0.9 2.6 0.02 0.11 0.02 91 1016.6
20260903122337 73 330 1.7 3.5 0.02 0.11 0.02 91 1017.2
20260903121313 73 145 2.6 5.2 0.00 0.09 0.00 90 1016.8
20260903120317 73 123 2.6 4.3 0.00 0.09 0.00 90 1016.6
20260903115314 73 235 2.6 6.1 0.00 0.09 0.00 90 1017.1
20260903114312 72 159 1.7 4.3 0.00 0.09 0.00 90 1017.0
20260903113323 72 106 1.7 5.2 0.00 0.09 0.00 91 1016.8
20260903112333 72 42 2.6 8.7 0.00 0.09 0.00 92 1016.7
20260903111336 72 351 2.6 7.0 0.00 0.09 0.00 92 1016.5
20260903110315 72 105 1.7 3.5 0.00 0.09 0.00 93 1016.6
20260903105338 72 360 0.0 3.5 0.00 0.09 0.00 93 1016.9
20260903104313 72 351 1.7 5.2 0.00 0.09 0.00 93 1016.8
20260903103324 72 96 3.5 7.8 0.00 0.09 0.00 93 1016.5
20260903102340 72 119 2.6 7.8 0.00 0.09 0.00 93 1016.8
20260903101317 72 5 4.3 7.8 0.00 0.09 0.00 93 1016.8
20260903100315 72 351 2.6 5.2 0.00 0.09 0.00 93 1016.8
20260903095334 72 342 3.5 4.3 0.00 0.09 0.00 93 1016.7
20260903094313 72 24 1.7 8.7 0.00 0.09 0.00 92 1016.0